Regional Weather Roundup
Issued by NWS

Home | Current Version | Previous Version | Text Only | Print | Product List | Glossary On
Versions: 1 2 3 4 5 6 7 8 9 10 11 12 13 14 15 16 17 18 19 20 21 22 23 24 25 26 27 28 29 30 31 32 33 34 35 36 37 38 39 40 41 42 43 44 45 46 47 48 49 50
000
ASUS43 KBIS 180610
RWRND

NORTH DAKOTA REGIONAL WEATHER ROUNDUP
NATIONAL WEATHER SERVICE BISMARCK ND
1200 AM CST THU JAN 18 2018

NOTE: "FAIR" INDICATES FEW OR NO CLOUDS BELOW 12,000 FEET WITH NO
SIGNIFICANT WEATHER AND/OR OBSTRUCTIONS TO VISIBILITY.


NDZ001>003-009>011-017-180700-
NORTHWEST NORTH DAKOTA

CITY           SKY/WX    TMP DP  RH WIND       PRES   REMARKS
WILLISTON      CLEAR     22  17  81 SW5       29.91F WCI  16
6HR MIN TEMP:  19; 6HR MAX TEMP:  28;

MINOT          CLEAR     32  20  61 SW17      29.84F
MINOT AFB      CLOUDY    28  20  69 W17       29.82F WCI  16
$$

NDZ018>021-031>035-040>046-180700-
SOUTHWEST NORTH DAKOTA

CITY           SKY/WX    TMP DP  RH WIND       PRES   REMARKS
BISMARCK       MOCLDY    31  22  69 CALM      29.96F
6HR MIN TEMP:  28; 6HR MAX TEMP:  33;

DICKINSON      PTCLDY    24  17  74 W7        29.91F WCI  16
GARRISON         N/A     21  16  81 W12       29.90F WCI   9
6HR MIN TEMP:  20; 6HR MAX TEMP:  31;

HETTINGER ARPT PTCLDY    23  17  78 W6        29.98F WCI  16
$$

NDZ004>008-012>016-024-026-027-054-180700-
NORTHEAST NORTH DAKOTA

CITY           SKY/WX    TMP DP  RH WIND       PRES   REMARKS
GRAND FORKS    FAIR      34  25  69 SW16      29.78F
GRND FRKS AFB  FAIR      34  22  63 W16G26    29.78F
DEVILS LAKE    FAIR      30  23  75 W17       29.80F WCI  18
$$

NDZ022-023-025-028>030-036>039-047>053-180700-
SOUTHEAST NORTH DAKOTA

CITY           SKY/WX    TMP DP  RH WIND       PRES   REMARKS
FARGO          FAIR      31  23  72 SW21      29.90F WCI  18
6HR MIN TEMP:  29; 6HR MAX TEMP:  32;

JAMESTOWN      CLOUDY    33  23  66 W18       29.89F
$$





USA.gov is the U.S. government's official web portal to all federal, state and local government web resources and services.